Location: Unspecified
(52.0178°N, 0.0000°E)
Time: 07:57:55
(UTC+00:00)

O/OREOS (USA 219) - Pass Details

Date: 24 July 2019
Orbit: 621 x 646 km, 72.0° (Epoch: 22 May)

Event Time Altitude Azimuth Distance (km) Brightness Sun altitude
Exits shadow 02:52:18 - 171° (S) 2,839 ? -9.5°
Reaches altitude 10° 02:54:36 10° 159° (SSE) 2,031 ? -9.3°
Maximum altitude 02:58:18 25° 105° (ESE) 1,305 ? -8.9°
Drops below altitude 10° 03:01:59 10° 50° (NE) 2,032 ? -8.5°
Sets 03:04:34 0° 38° (NE) 2,941 ? -8.3°
